Location: Batesville
(34.7480°N, 83.6110°W)
Time: 07:52:56
(UTC-04:00)

Envisat - Visible Passes

Search period start: 17 July 2018 00:00
Search period end: 27 July 2018 00:00
Orbit: 764 x 766 km, 98.2° (Epoch: 17 July)

Date Brightness Start Highest point End Pass type
(mag) Time Alt. Az. Time Alt. Az. Time Alt. Az.
17 Jul 4.1 21:17:44 10° S 21:22:36 46° W 21:27:29 10° NNW visible
19 Jul 5.1 21:44:08 10° SSW 21:48:17 25° W 21:52:27 10° NW visible
20 Jul 3.6 21:06:25 10° S 21:11:25 61° W 21:16:27 10° NNW visible
21 Jul 5.7 22:11:36 10° WSW 22:14:03 13° W 22:16:31 10° WNW visible
22 Jul 4.7 21:32:32 10° SSW 21:37:03 32° W 21:41:36 10° NW visible
24 Jul 5.6 21:59:26 10° SW 22:02:47 18° W 22:06:10 10° NW visible
25 Jul 4.3 21:21:05 10° S 21:25:51 42° W 21:30:39 10° NNW visible
